Weather History for Eureka Airport, NV

Change the Weather History Date:

Monday, April 21, 2014

  Actual Average Record
Temperature  
Mean Temperature 54 °F -  
Max Temperature 75 °F - - ()
Min Temperature 32 °F - - ()
Degree Days  
Heating Degree Days 12    
Growing Degree Days 4 (Base 50)    
Moisture  
Dew Point 20 °F    
Average Humidity 32    
Maximum Humidity 65    
Minimum Humidity 13    
Precipitation  
Precipitation 0.00 in - - ()
Sea Level Pressure  
Sea Level Pressure 30.12 in    
Wind  
Wind Speed 6 mph (SSW)    
Max Wind Speed 29 mph    
Max Gust Speed 45 mph    
Visibility 10 miles    
Events      
T = Trace of Precipitation, MM = Missing Value Source: NWS Daily Summary

Daily Weather History Graph

Daily Weather History Graph

Search for Another Location

Airport:

Trip Planner

Search our weather history database for the weather conditions in past years. The results will help you decide how hot, cold, wet, or windy it might be!

Date:

Astronomy

Apr. 21, 2014 Rise Set
Actual Time 5:57 AM PDT 7:28 PM PDT
Civil Twilight 5:29 AM PDT 7:56 PM PDT
Nautical Twilight 4:55 AM PDT 8:30 PM PDT
Astronomical Twilight 4:19 AM PDT 9:06 PM PDT
Moon 1:01 AM PDT (4/21) 11:29 AM PDT (4/21)
Length of Visible Light 14h 26m
Length of Day
13h 30m
Waning Gibbous, 56% of the Moon is Illuminated
Apr 21
Waning Gibbous
Apr 22
Last Quarter
Apr 28
New
May 6
First Quarter
May 14
Full

Hourly Weather History & Observations

Time (PDT) Temp. Windchill Dew Point Humidity Pressure Visibility Wind Dir Wind Speed Gust Speed Precip Events Conditions
12:00 AM 33.8 °F - 19.4 °F 56% 30.26 in 10.0 mi Calm Calm - N/A   Clear
12:20 AM 33.8 °F - 19.4 °F 56% 30.26 in 10.0 mi Calm Calm - N/A   Clear
12:40 AM 32.0 °F - 17.6 °F 55% 30.27 in 10.0 mi Calm Calm - N/A   Clear
1:00 AM 32.0 °F 27.5 °F 19.4 °F 60% 30.27 in 10.0 mi SSW 4.6 mph - N/A   Clear
1:20 AM 33.8 °F 30.8 °F 19.4 °F 56% 30.26 in 10.0 mi SSW 3.5 mph - N/A   Clear
1:40 AM 35.6 °F 30.7 °F 21.2 °F 56% 30.25 in 10.0 mi South 5.8 mph - N/A   Clear
2:00 AM 35.6 °F - 19.4 °F 52% 30.25 in 10.0 mi Calm Calm - N/A   Clear
2:20 AM 32.0 °F 27.5 °F 19.4 °F 60% 30.25 in 10.0 mi SSW 4.6 mph - N/A   Clear
2:40 AM 33.8 °F 28.6 °F 19.4 °F 56% 30.24 in 10.0 mi SSW 5.8 mph - N/A   Partly Cloudy
3:00 AM 33.8 °F - 19.4 °F 56% 30.24 in 10.0 mi Calm Calm - N/A   Clear
3:20 AM 35.6 °F 30.7 °F 19.4 °F 52% 30.24 in 10.0 mi SSW 5.8 mph - N/A   Clear
3:40 AM 33.8 °F 29.6 °F 19.4 °F 56% 30.24 in 10.0 mi South 4.6 mph - N/A   Clear
4:00 AM 35.6 °F 30.7 °F 19.4 °F 52% 30.24 in 10.0 mi South 5.8 mph - N/A   Mostly Cloudy
4:20 AM 35.6 °F 30.7 °F 21.2 °F 56% 30.24 in 10.0 mi South 5.8 mph - N/A   Overcast
4:40 AM 35.6 °F - 19.4 °F 52% 30.23 in 10.0 mi Calm Calm - N/A   Mostly Cloudy
5:00 AM 33.8 °F 30.8 °F 21.2 °F 60% 30.23 in 10.0 mi South 3.5 mph - N/A   Mostly Cloudy
5:20 AM 33.8 °F 28.6 °F 21.2 °F 60% 30.23 in 10.0 mi SSW 5.8 mph - N/A   Mostly Cloudy
5:40 AM 35.6 °F 32.8 °F 21.2 °F 56% 30.22 in 10.0 mi South 3.5 mph - N/A   Overcast
6:00 AM 33.8 °F 30.8 °F 21.2 °F 60% 30.22 in 10.0 mi SSW 3.5 mph - N/A   Mostly Cloudy
6:20 AM 33.8 °F 28.6 °F 21.2 °F 60% 30.22 in 10.0 mi SSW 5.8 mph - N/A   Mostly Cloudy
6:40 AM 33.8 °F 29.6 °F 23.0 °F 65% 30.22 in 10.0 mi SSW 4.6 mph - N/A   Mostly Cloudy
7:00 AM 35.6 °F 32.8 °F 21.2 °F 56% 30.22 in 10.0 mi SSW 3.5 mph - N/A   Mostly Cloudy
7:20 AM 39.2 °F 35.9 °F 21.2 °F 49% 30.22 in 10.0 mi SW 4.6 mph - N/A   Mostly Cloudy
7:40 AM 41.0 °F - 21.2 °F 45% 30.22 in 10.0 mi Calm Calm - N/A   Mostly Cloudy
8:00 AM 46.4 °F - 21.2 °F 37% 30.22 in 10.0 mi Calm Calm - N/A   Partly Cloudy
8:20 AM 48.2 °F - 21.2 °F 34% 30.22 in 10.0 mi Calm Calm - N/A   Partly Cloudy
8:40 AM 50.0 °F - 23.0 °F 35% 30.21 in 10.0 mi NE 3.5 mph - N/A   Partly Cloudy
9:00 AM 51.8 °F - 19.4 °F 28% 30.21 in 10.0 mi NE 3.5 mph - N/A   Scattered Clouds
9:20 AM 55.4 °F - 19.4 °F 25% 30.20 in 10.0 mi NNE 3.5 mph - N/A   Partly Cloudy
9:40 AM 57.2 °F - 19.4 °F 23% 30.19 in 10.0 mi ENE 3.5 mph - N/A   Clear
10:00 AM 59.0 °F - 19.4 °F 22% 30.19 in 10.0 mi Calm Calm - N/A   Clear
10:20 AM 60.8 °F - 21.2 °F 22% 30.18 in 10.0 mi North 3.5 mph - N/A   Clear
10:40 AM 62.6 °F - 23.0 °F 22% 30.17 in 10.0 mi NE 3.5 mph - N/A   Clear
11:00 AM 66.2 °F - 23.0 °F 19% 30.16 in 10.0 mi SSW 8.1 mph - N/A   Clear
11:20 AM 71.6 °F - 23.0 °F 16% 30.15 in 10.0 mi South 12.7 mph 21.9 mph N/A   Clear
11:40 AM 71.6 °F - 23.0 °F 16% 30.14 in 10.0 mi South 25.3 mph - N/A   Clear
12:00 PM 71.6 °F - 23.0 °F 16% 30.14 in 10.0 mi South 20.7 mph 32.2 mph N/A   Clear
12:20 PM 71.6 °F - 23.0 °F 16% 30.13 in 10.0 mi South 20.7 mph 25.3 mph N/A   Clear
12:40 PM 73.4 °F - 23.0 °F 15% 30.10 in 10.0 mi South 21.9 mph 32.2 mph N/A   Clear
1:00 PM 73.4 °F - 23.0 °F 15% 30.09 in 10.0 mi SSW 19.6 mph 36.8 mph N/A   Partly Cloudy
1:20 PM 73.4 °F - 23.0 °F 15% 30.07 in 10.0 mi South 20.7 mph - N/A   Scattered Clouds
1:40 PM 75.2 °F - 23.0 °F 14% 30.07 in 10.0 mi South 18.4 mph 26.5 mph N/A   Partly Cloudy
2:00 PM 75.2 °F - 23.0 °F 14% 30.06 in 10.0 mi South 19.6 mph 26.5 mph N/A   Clear
2:20 PM 73.4 °F - 23.0 °F 15% 30.05 in 10.0 mi South 12.7 mph 23.0 mph N/A   Scattered Clouds
2:40 PM 73.4 °F - 21.2 °F 14% 30.04 in 10.0 mi SW 15.0 mph 26.5 mph N/A   Mostly Cloudy
3:00 PM 73.4 °F - 21.2 °F 14% 30.03 in 10.0 mi South 28.8 mph 44.9 mph N/A   Scattered Clouds
3:20 PM 73.4 °F - 21.2 °F 14% 30.03 in 10.0 mi SSW 21.9 mph 29.9 mph N/A   Scattered Clouds
3:40 PM 71.6 °F - 19.4 °F 14% 30.02 in 10.0 mi SW 18.4 mph 24.2 mph N/A   Partly Cloudy
4:00 PM 71.6 °F - 19.4 °F 14% 30.01 in 10.0 mi WSW 13.8 mph 33.4 mph N/A   Partly Cloudy
4:20 PM 71.6 °F - 19.4 °F 14% 30.02 in 7.0 mi WSW 17.3 mph 42.6 mph N/A   Partly Cloudy
4:40 PM 69.8 °F - 17.6 °F 14% 30.02 in 10.0 mi SW 16.1 mph 27.6 mph N/A   Clear
5:00 PM 69.8 °F - 15.8 °F 13% 30.01 in 10.0 mi SW 17.3 mph - N/A   Clear
5:20 PM 69.8 °F - 15.8 °F 13% 30.00 in 10.0 mi WSW 13.8 mph - N/A   Clear
5:40 PM 69.8 °F - 15.8 °F 13% 30.00 in 10.0 mi SW 15.0 mph - N/A   Clear
6:00 PM 68.0 °F - 15.8 °F 13% 29.99 in 10.0 mi SW 18.4 mph 26.5 mph N/A   Clear
6:20 PM 68.0 °F - 15.8 °F 13% 29.99 in 10.0 mi SW 11.5 mph 28.8 mph N/A   Clear
6:40 PM 68.0 °F - 15.8 °F 13% 29.98 in 10.0 mi SW 9.2 mph - N/A   Clear
7:00 PM 68.0 °F - 15.8 °F 13% 29.97 in 10.0 mi WSW 6.9 mph - N/A   Clear
7:20 PM 66.2 °F - 14.0 °F 13% 29.96 in 10.0 mi SW 11.5 mph 20.7 mph N/A   Clear
7:40 PM 64.4 °F - 15.8 °F 15% 29.97 in 10.0 mi SSW 10.4 mph - N/A   Clear
8:00 PM 64.4 °F - 15.8 °F 15% 29.97 in 10.0 mi SSW 10.4 mph - N/A   Clear
8:20 PM 60.8 °F - 17.6 °F 19% 29.99 in 10.0 mi WSW 11.5 mph - N/A   Clear
8:40 PM 59.0 °F - 15.8 °F 19% 30.00 in 10.0 mi Calm Calm - N/A   Clear
9:00 PM 59.0 °F - 17.6 °F 20% 30.01 in 10.0 mi Calm Calm - N/A   Clear
9:20 PM 55.4 °F - 23.0 °F 29% 30.02 in 10.0 mi Calm Calm - N/A   Clear
9:40 PM 53.6 °F - 23.0 °F 30% 30.03 in 10.0 mi Calm Calm - N/A   Scattered Clouds
10:00 PM 53.6 °F - 21.2 °F 28% 30.02 in 10.0 mi SE 5.8 mph - N/A   Mostly Cloudy
10:20 PM 53.6 °F - 21.2 °F 28% 30.02 in 10.0 mi Calm Calm - N/A   Mostly Cloudy
10:40 PM 50.0 °F - 21.2 °F 32% 30.01 in 10.0 mi Calm Calm - N/A   Partly Cloudy
11:00 PM 51.8 °F - 19.4 °F 28% 30.00 in 10.0 mi ESE 3.5 mph - N/A   Scattered Clouds
11:20 PM 51.8 °F - 23.0 °F 33% 29.99 in 10.0 mi Calm Calm - N/A   Mostly Cloudy
11:40 PM 50.0 °F - 19.4 °F 30% 29.98 in 10.0 mi Calm Calm - N/A   Mostly Cloudy